Spokane Fairchild, WA
on Saturday, December 15, 2012

Saturday
Previous Day Next Day
Daily Summary
 ActualAverage (KGEG)Record (KGEG)
Temperature
Mean Temperature °F 27°F  
Max Temperature 32°F 32°F 53°F (1941)
Min Temperature 26°F 22°F -9°F (1922)
Degree Days
Heating Degree Days 36 38  
Month to date heating degree days 553  
Since 1 July heating degree days 2220  
Cooling Degree Days 0 0  
Month to date cooling degree days 0  
Year to date cooling degree days 450  
Moisture
Dew Point 29°F   
Average Humidity 100    
Maximum Humidity 100    
Minimum Humidity 100    
Precipitation
Precipitation 0.06 in 0.08 in 0.61 in (2009)
Month to date precipitation 1.19  
Year to date precipitation 15.45  
Snow
Snow 0.00 in 0.50 in 4.80 in (1963)
Month to date snowfall 6.4  
Since 1 July snowfall 13.9  
Snow Depth in   
Wind
Wind Speed 4 mph   
Max Wind Speed 10 mph   
Max Gust Speed mph   
Visibility 8 miles   
Events Snow   

Key: T is trace of precipitation, MM is missing value
Source: NWS Daily Summary
Time(PST)TemperatureDew PointHumidity Pressure Visibility Wind DirectionWind SpeedGust SpeedPrecipitationEvents Conditions
12:02 AM 26.6°F 26.6°F 100% 29.88 in 10.0 miles SE 1.2 mph - N/A   Overcast
12:07 AM 26.6°F 26.6°F 100% 29.88 in 10.0 miles SSE 1.2 mph - N/A   Overcast
12:27 AM 26.6°F 26.6°F 100% 29.88 in 10.0 miles South 2.3 mph - N/A   Overcast
12:37 AM 26.6°F 26.6°F 100% 29.88 in 10.0 miles SW 2.3 mph - N/A   Overcast
12:42 AM 26.6°F 26.6°F 100% 29.89 in 10.0 miles SW 2.3 mph - N/A   Overcast
12:52 AM 26.6°F 26.6°F 100% 29.88 in 10.0 miles SW 2.3 mph - N/A   Overcast
12:58 AM 27.3°F 27.3°F 100% 29.96 in 10.0 miles WSW 2.3 mph - 0.00 in   Overcast
1:23 AM 26.6°F 26.6°F 100% 29.88 in 10.0 miles SSE 2.3 mph - N/A   Overcast
1:31 AM 26.6°F 26.6°F 100% 29.88 in 10.0 miles SSW 3.5 mph - N/A   Overcast
1:34 AM 26.6°F 26.6°F 100% 29.88 in 10.0 miles SSW 3.5 mph - N/A   Overcast
1:58 AM 27.1°F 27.1°F 100% 29.96 in 9.0 miles South 3.5 mph - 0.00 in   Overcast
1:59 AM 26.6°F 26.6°F 100% 29.88 in 9.0 miles South 4.6 mph - N/A   Overcast
2:12 AM 28.4°F 28.4°F 100% 29.88 in 9.0 miles South 3.5 mph - N/A   Overcast
2:20 AM 28.4°F 28.4°F 100% 29.87 in 9.0 miles South 2.3 mph - N/A   Overcast
2:25 AM 28.4°F 28.4°F 100% 29.87 in 9.0 miles South 3.5 mph - N/A   Overcast
2:30 AM 28.4°F 28.4°F 100% 29.87 in 8.0 miles South 3.5 mph - N/A   Overcast
2:35 AM 28.4°F 28.4°F 100% 29.87 in 8.0 miles South 3.5 mph - N/A   Overcast
2:36 AM 28.4°F 28.4°F 100% 29.87 in 8.0 miles South 4.6 mph - N/A   Overcast
2:56 AM 28.4°F 28.4°F 100% 29.87 in 5.0 miles SSE 2.3 mph - N/A   Overcast
2:58 AM 27.7°F 27.7°F 100% 29.96 in 5.0 miles SSE 2.3 mph - 0.00 in   Overcast
3:03 AM 28.4°F 28.4°F 100% 29.86 in 5.0 miles SSE 3.5 mph - N/A   Overcast
3:08 AM 28.4°F 28.4°F 100% 29.86 in 5.0 miles SSE 3.5 mph - N/A   Overcast
3:43 AM 28.4°F 28.4°F 100% 29.86 in 6.0 miles South 2.3 mph - N/A   Overcast
3:53 AM 28.4°F 28.4°F 100% 29.85 in 9.0 miles South 2.3 mph - N/A   Overcast
3:58 AM 27.7°F 27.7°F 100% 29.94 in 9.0 miles South 2.3 mph - 0.00 in   Overcast
3:59 AM 28.4°F 28.4°F 100% 29.85 in 9.0 miles South 2.3 mph - N/A   Overcast
4:08 AM 28.4°F 28.4°F 100% 29.85 in 10.0 miles South 3.5 mph - N/A   Overcast
4:11 AM 28.4°F 28.4°F 100% 29.85 in 10.0 miles South 3.5 mph - N/A   Overcast
4:16 AM 28.4°F 28.4°F 100% 29.85 in 10.0 miles South 3.5 mph - N/A   Overcast
4:21 AM 28.4°F 28.4°F 100% 29.85 in 10.0 miles South 5.8 mph - N/A   Overcast
4:24 AM 28.4°F 28.4°F 100% 29.85 in 10.0 miles SSW 5.8 mph - N/A   Overcast
4:34 AM 28.4°F 28.4°F 100% 29.85 in 10.0 miles SSW 4.6 mph - N/A   Overcast
4:37 AM 26.6°F 26.6°F 100% 29.85 in 10.0 miles South 4.6 mph - N/A   Overcast
4:47 AM 26.6°F 26.6°F 100% 29.85 in 10.0 miles South 6.9 mph - N/A   Overcast
4:51 AM 26.6°F 26.6°F 100% 29.85 in 10.0 miles South 6.9 mph - N/A   Overcast
4:58 AM 27.3°F 27.3°F 100% 29.94 in 10.0 miles SSE 6.9 mph - 0.00 in   Overcast
5:03 AM 26.6°F 26.6°F 100% 29.84 in 10.0 miles South 6.9 mph - N/A   Overcast
5:13 AM 26.6°F 26.6°F 100% 29.84 in 10.0 miles SSE 5.8 mph - N/A   Overcast
5:14 AM 26.6°F 26.6°F 100% 29.84 in 10.0 miles South 5.8 mph - N/A   Overcast
5:29 AM 26.6°F 26.6°F 100% 29.84 in 10.0 miles SSE 5.8 mph - N/A Snow Light Snow
5:47 AM 26.6°F 26.6°F 100% 29.84 in 10.0 miles SW 5.8 mph - N/A   Overcast
5:55 AM 26.6°F 26.6°F 100% 29.83 in 10.0 miles South 6.9 mph - N/A   Overcast
5:58 AM 26.6°F 26.6°F 100% 29.93 in 10.0 miles South 5.8 mph - 0.00 in   Overcast
5:59 AM 26.6°F 26.6°F 100% 29.84 in 10.0 miles SSE 4.6 mph - N/A   Overcast
6:30 AM 26.6°F 26.6°F 100% 29.84 in 10.0 miles South 6.9 mph - N/A   Overcast
6:31 AM 26.6°F 26.6°F 100% 29.83 in 10.0 miles South 6.9 mph - N/A   Overcast
6:49 AM 26.6°F 26.6°F 100% 29.84 in 10.0 miles South 6.9 mph - N/A   Overcast
6:58 AM 27.0°F 27.0°F 100% 29.93 in 10.0 miles South 5.8 mph - 0.00 in   Overcast
7:27 AM 26.6°F 26.6°F 100% 29.83 in 10.0 miles SW 2.3 mph - N/A   Overcast
7:46 AM 26.6°F 26.6°F 100% 29.83 in 10.0 miles SSW 2.3 mph - N/A   Overcast
7:49 AM 26.6°F 26.6°F 100% 29.83 in 10.0 miles South 2.3 mph - N/A Snow Light Snow
7:58 AM 27.0°F 27.0°F 100% 29.92 in 9.0 miles South 2.3 mph - 0.00 in Snow Light Snow
8:03 AM 26.6°F 26.6°F 100% 29.83 in 8.0 miles South 3.5 mph - N/A Snow Light Snow
8:05 AM 26.6°F 26.6°F 100% 29.83 in 8.0 miles SSE 3.5 mph - N/A Snow Light Snow
8:10 AM 26.6°F 26.6°F 100% 29.83 in 9.0 miles SSE 2.3 mph - N/A Snow Light Snow
8:20 AM 26.6°F 26.6°F 100% 29.83 in 10.0 miles SSE 2.3 mph - N/A Snow Light Snow
8:21 AM 26.6°F 26.6°F 100% 29.83 in 10.0 miles SSE 2.3 mph - N/A   Overcast
8:46 AM 26.6°F 26.6°F 100% 29.83 in 10.0 miles SE 2.3 mph - N/A   Overcast
8:58 AM 27.1°F 27.1°F 100% 29.92 in 10.0 miles SE 2.3 mph - 0.00 in   Overcast
9:00 AM 26.6°F 26.6°F 100% 29.82 in 10.0 miles SSE 2.3 mph - N/A   Overcast
9:15 AM 28.4°F 28.4°F 100% 29.82 in 10.0 miles SE 4.6 mph - N/A   Overcast
9:25 AM 28.4°F 28.4°F 100% 29.82 in 10.0 miles ESE 3.5 mph - N/A   Overcast
9:27 AM 28.4°F 28.4°F 100% 29.82 in 9.0 miles ESE 4.6 mph - N/A   Overcast
9:32 AM 28.4°F 28.4°F 100% 29.82 in 9.0 miles ESE 4.6 mph - N/A   Overcast
9:42 AM 28.4°F 28.4°F 100% 29.82 in 10.0 miles ESE 4.6 mph - N/A   Overcast
9:47 AM 28.4°F 28.4°F 100% 29.82 in 10.0 miles ESE 3.5 mph - N/A   Overcast
9:52 AM 28.4°F 28.4°F 100% 29.82 in 10.0 miles ESE 3.5 mph - N/A   Overcast
9:58 AM 28.6°F 28.6°F 100% 29.91 in 10.0 miles SE 5.8 mph - 0.00 in   Overcast
10:23 AM 28.4°F 28.4°F 100% 29.81 in 10.0 miles ESE 4.6 mph - N/A   Overcast
10:31 AM 30.2°F 30.2°F 100% 29.80 in 10.0 miles SE 5.8 mph - N/A   Overcast
10:46 AM 30.2°F 30.2°F 100% 29.79 in 10.0 miles SE 5.8 mph - N/A   Overcast
10:48 AM 30.2°F 30.2°F 100% 29.79 in 10.0 miles ESE 6.9 mph - N/A   Overcast
10:51 AM 30.2°F 30.2°F 100% 29.79 in 10.0 miles ESE 6.9 mph - N/A   Overcast
10:58 AM 29.8°F 29.8°F 100% 29.87 in 10.0 miles ESE 5.8 mph - 0.00 in   Overcast
10:59 AM 30.2°F 30.2°F 100% 29.79 in 10.0 miles ESE 5.8 mph - N/A   Overcast
11:07 AM 30.2°F 30.2°F 100% 29.78 in 10.0 miles SE 5.8 mph - N/A   Overcast
11:29 AM 32.0°F 32.0°F 100% 29.78 in 10.0 miles ESE 4.6 mph - N/A   Overcast
11:39 AM 32.0°F 32.0°F 100% 29.78 in 10.0 miles SE 5.8 mph - N/A   Overcast
11:58 AM 30.6°F 30.6°F 100% 29.85 in 10.0 miles SSE 4.6 mph - 0.00 in   Overcast
12:03 PM 30.2°F 30.2°F 100% 29.77 in 10.0 miles SSE 4.6 mph - N/A   Overcast
12:38 PM 32.0°F 32.0°F 100% 29.76 in 10.0 miles South 2.3 mph - N/A   Mostly Cloudy
12:43 PM 32.0°F 32.0°F 100% 29.75 in 10.0 miles South 2.3 mph - N/A   Mostly Cloudy
12:53 PM 32.0°F 32.0°F 100% 29.75 in 10.0 miles South 2.3 mph - N/A   Mostly Cloudy
12:58 PM 30.4°F 30.4°F 100% 29.83 in 10.0 miles SSE 2.3 mph - N/A   Mostly Cloudy
1:03 PM 32.0°F 32.0°F 100% 29.75 in 10.0 miles SE 2.3 mph - N/A   Mostly Cloudy
1:12 PM 32.0°F 32.0°F 100% 29.74 in 10.0 miles SE 3.5 mph - N/A   Mostly Cloudy
1:13 PM 32.0°F 32.0°F 100% 29.74 in 10.0 miles SE 3.5 mph - N/A   Mostly Cloudy
1:55 PM 32.0°F 32.0°F 100% 29.72 in 10.0 miles ESE 4.6 mph - N/A   Mostly Cloudy
1:58 PM 32.0°F 32.0°F 100% 29.80 in 10.0 miles ESE 5.8 mph - 0.00 in   Mostly Cloudy
2:00 PM 32.0°F 32.0°F 100% 29.71 in 10.0 miles ESE 6.9 mph - N/A   Mostly Cloudy
2:02 PM 32.0°F 32.0°F 100% 29.71 in 10.0 miles ESE 5.8 mph - N/A   Mostly Cloudy
2:25 PM 32.0°F 32.0°F 100% 29.71 in 10.0 miles ESE 4.6 mph - N/A   Scattered Clouds
2:58 PM 30.2°F 30.2°F 100% 29.78 in 10.0 miles ESE 4.6 mph - 0.00 in   Mostly Cloudy
3:58 PM 30.6°F 30.6°F 100% 29.73 in 10.0 miles ESE 6.9 mph - N/A   Overcast
4:58 PM 30.6°F 30.6°F 100% 29.70 in 10.0 miles SE 4.6 mph - N/A   Overcast
5:58 PM 30.4°F 30.4°F 100% 29.68 in 10.0 miles SSE 5.8 mph - N/A   Overcast
6:52 PM 30.2°F 30.2°F 100% 29.60 in 10.0 miles South 3.5 mph - N/A   Overcast
6:58 PM 30.0°F 30.0°F 100% 29.68 in 10.0 miles South 3.5 mph - 0.00 in   Overcast
7:08 PM 30.2°F 30.2°F 100% 29.60 in 10.0 miles South 2.3 mph - N/A Snow Light Snow
7:13 PM 30.2°F 30.2°F 100% 29.60 in 10.0 miles South 3.5 mph - N/A Snow Light Snow
7:33 PM 30.2°F 30.2°F 100% 29.59 in 7.0 miles SSE 5.8 mph - N/A Snow Light Snow
7:38 PM 30.2°F 30.2°F 100% 29.59 in 6.0 miles SE 5.8 mph - N/A Snow Light Snow
7:58 PM 30.0°F 30.0°F 100% 29.67 in 4.0 miles SE 5.8 mph - 0.00 in Snow Light Snow
8:18 PM 30.2°F 30.2°F 100% 29.58 in 2.5 miles ESE 2.3 mph - N/A Snow Light Snow
8:33 PM 30.2°F 30.2°F 100% 29.58 in 2.0 miles ENE 3.5 mph - N/A Snow Light Snow
8:38 PM 30.2°F 30.2°F 100% 29.58 in 1.8 miles East 4.6 mph - N/A Snow Light Snow
8:48 PM 30.2°F 30.2°F 100% 29.57 in 1.5 miles ENE 2.3 mph - N/A Snow Light Snow
8:53 PM 30.2°F 30.2°F 100% 29.57 in 1.8 miles ENE 2.3 mph - N/A Snow Light Snow
8:58 PM 29.5°F 29.5°F 100% 29.65 in 1.8 miles East 4.6 mph - 0.00 in Snow Light Snow
9:08 PM 30.2°F 30.2°F 100% 29.57 in 1.5 miles ESE 4.6 mph - N/A Snow Light Snow
9:13 PM 30.2°F 30.2°F 100% 29.56 in 1.2 miles ESE 4.6 mph - N/A Snow Light Snow
9:18 PM 30.2°F 30.2°F 100% 29.56 in 1.5 miles SE 5.8 mph - N/A Snow Light Snow
9:33 PM 30.2°F 30.2°F 100% 29.56 in 1.2 miles SE 5.8 mph - N/A Snow Light Snow
9:48 PM 30.2°F 30.2°F 100% 29.55 in 1.2 miles SE 6.9 mph - N/A Snow Light Snow
9:53 PM 30.2°F 30.2°F 100% 29.55 in 1.5 miles SE 6.9 mph - N/A Snow Light Snow
9:58 PM 30.2°F 30.2°F 100% 29.62 in 1.8 miles SE 6.9 mph - 0.02 in Snow Light Snow
10:03 PM 30.2°F 30.2°F 100% 29.55 in 2.0 miles SE 8.1 mph - N/A Snow Light Snow
10:23 PM 30.2°F 30.2°F 100% 29.55 in 1.8 miles SE 5.8 mph - N/A Snow Light Snow
10:28 PM 30.2°F 30.2°F 100% 29.55 in 1.8 miles SE 5.8 mph - N/A Snow Light Snow
10:48 PM 30.2°F 30.2°F 100% 29.55 in 2.0 miles SE 5.8 mph - N/A Snow Light Snow
10:53 PM 30.2°F 30.2°F 100% 29.55 in 2.0 miles SSE 10.4 mph - N/A Snow Light Snow
10:58 PM 30.2°F 30.2°F 100% 29.62 in 2.0 miles SSE 9.2 mph - 0.01 in Snow Light Snow
11:13 PM 30.2°F 30.2°F 100% 29.55 in 3.0 miles South 8.1 mph - N/A Snow Light Snow
11:28 PM 30.2°F 30.2°F 100% 29.55 in 3.0 miles South 8.1 mph - N/A Snow Light Snow
11:53 PM 30.2°F 30.2°F 100% 29.55 in 3.0 miles South 10.4 mph - N/A Snow Light Snow
11:58 PM 30.2°F 30.2°F 100% 29.62 in 3.0 miles South 10.4 mph - 0.03 in Snow Light Snow
Moon Phase
Dec. 15 Dec. 20 Dec. 28 Jan. 04 Jan. 11
Sunrise:07:32 AM (PST) Moon Rise:09:20 AM (PST)12/15
Sunset:03:59 PM (PST) Moon Set:07:18 PM (PST)12/15

Copyright © 2014 The Weather Underground, Inc.